| time (UTC) | temp C | wind direction | speed KPH | gust KPH | rain 1hr cm | rain 24hr cm | rain mn cm | humidity % | barometer mb |
| 20260904171555 | 33 | 297 | 3.2 | 12.9 | 0.00 | 0.00 | 0.00 | 38 | 1014.1 |
| 20260904170041 | 33 | 131 | 1.6 | 4.8 | 0.00 | 0.00 | 0.00 | 39 | 1014.3 |
| 20260904164548 | 32 | 46 | 1.6 | 8.0 | 0.00 | 0.00 | 0.00 | 42 | 1014.5 |
| 20260904163040 | 32 | 0 | 1.6 | 6.4 | 0.00 | 0.00 | 0.00 | 45 | 1014.5 |
| 20260904161538 | 31 | 115 | 1.6 | 12.9 | 0.00 | 0.00 | 0.00 | 47 | 1014.5 |
| 20260904160042 | 30 | 176 | 1.6 | 8.0 | 0.00 | 0.00 | 0.00 | 51 | 1014.5 |
| 20260904154541 | 30 | 300 | 1.6 | 9.7 | 0.00 | 0.00 | 0.00 | 53 | 1014.4 |
| 20260904153040 | 29 | 0 | 1.6 | 9.7 | 0.00 | 0.00 | 0.00 | 56 | 1014.4 |
| 20260904151543 | 28 | 148 | 0.0 | 8.0 | 0.00 | 0.00 | 0.00 | 59 | 1014.4 |
| 20260904150041 | 28 | 18 | 1.6 | 11.3 | 0.00 | 0.00 | 0.00 | 61 | 1014.5 |
| 20260904144541 | 27 | 70 | 1.6 | 11.3 | 0.00 | 0.00 | 0.00 | 63 | 1014.5 |
| 20260904143045 | 27 | 36 | 1.6 | 9.7 | 0.00 | 0.00 | 0.00 | 64 | 1014.4 |
| 20260904141542 | 27 | 225 | 1.6 | 9.7 | 0.00 | 0.00 | 0.00 | 65 | 1014.4 |
| 20260904140038 | 26 | 0 | 3.2 | 8.0 | 0.00 | 0.00 | 0.00 | 66 | 1014.3 |
| 20260904134546 | 26 | 0 | 0.0 | 1.6 | 0.00 | 0.00 | 0.00 | 66 | 1014.2 |
| 20260904133041 | 26 | 0 | 1.6 | 4.8 | 0.00 | 0.00 | 0.00 | 67 | 1014.1 |
| 20260904131554 | 26 | 0 | 0.0 | 1.6 | 0.00 | 0.00 | 0.00 | 67 | 1014.0 |
| 20260904130042 | 26 | 0 | 0.0 | 6.4 | 0.00 | 0.00 | 0.00 | 67 | 1013.7 |
| 20260904124538 | 25 | 46 | 0.0 | 6.4 | 0.00 | 0.00 | 0.00 | 68 | 1013.7 |
| 20260904123041 | 25 | 64 | 0.0 | 8.0 | 0.00 | 0.00 | 0.00 | 68 | 1013.6 |
| 20260904121540 | 25 | 0 | 0.0 | 1.6 | 0.00 | 0.00 | 0.00 | 67 | 1013.6 |
| 20260904120048 | 25 | 0 | 0.0 | 4.8 | 0.00 | 0.00 | 0.00 | 67 | 1013.4 |
| 20260904114537 | 25 | 0 | 0.0 | 0.0 | 0.00 | 0.00 | 0.00 | 67 | 1013.3 |
| 20260904113041 | 26 | 0 | 0.0 | 0.0 | 0.00 | 0.00 | 0.00 | 66 | 1013.3 |
| 20260904111544 | 26 | 0 | 0.0 | 0.0 | 0.00 | 0.00 | 0.00 | 66 | 1013.2 |
| 20260904110040 | 26 | 0 | 0.0 | 6.4 | 0.00 | 0.00 | 0.00 | 66 | 1013.1 |
| 20260904104547 | 26 | 0 | 0.0 | 3.2 | 0.00 | 0.00 | 0.00 | 66 | 1013.0 |
| 20260904103050 | 26 | 0 | 0.0 | 11.3 | 0.00 | 0.00 | 0.00 | 66 | 1013.0 |
| 20260904101541 | 26 | 0 | 0.0 | 4.8 | 0.00 | 0.00 | 0.00 | 66 | 1012.8 |
| 20260904100042 | 26 | 0 | 0.0 | 8.0 | 0.00 | 0.00 | 0.00 | 66 | 1012.6 |
| 20260904094541 | 26 | 86 | 0.0 | 4.8 | 0.00 | 0.00 | 0.00 | 65 | 1012.6 |
| 20260904093045 | 26 | 43 | 0.0 | 6.4 | 0.00 | 0.00 | 0.00 | 65 | 1012.7 |
| 20260904091544 | 26 | 0 | 0.0 | 6.4 | 0.00 | 0.00 | 0.00 | 65 | 1012.7 |
| 20260904090042 | 26 | 146 | 0.0 | 3.2 | 0.00 | 0.00 | 0.00 | 64 | 1012.7 |
| 20260904084539 | 26 | 59 | 0.0 | 3.2 | 0.00 | 0.00 | 0.00 | 64 | 1012.6 |
| 20260904083103 | 26 | 79 | 0.0 | 3.2 | 0.00 | 0.00 | 0.00 | 64 | 1012.6 |
| 20260904081543 | 26 | 0 | 0.0 | 4.8 | 0.00 | 0.00 | 0.00 | 63 | 1012.7 |
| 20260904080043 | 26 | 0 | 0.0 | 6.4 | 0.00 | 0.00 | 0.00 | 63 | 1012.5 |
| 20260904074559 | 26 | 65 | 0.0 | 3.2 | 0.00 | 0.00 | 0.00 | 62 | 1012.7 |
| 20260904073040 | 26 | 0 | 0.0 | 4.8 | 0.00 | 0.00 | 0.00 | 62 | 1012.7 |
| 20260904071544 | 26 | 34 | 0.0 | 8.0 | 0.00 | 0.00 | 0.00 | 61 | 1012.8 |
| 20260904070042 | 26 | 0 | 1.6 | 8.0 | 0.00 | 0.00 | 0.00 | 61 | 1012.8 |
| 20260904064541 | 26 | 89 | 1.6 | 9.7 | 0.00 | 0.00 | 0.00 | 60 | 1012.9 |
| 20260904063047 | 26 | 44 | 1.6 | 14.5 | 0.00 | 0.00 | 0.00 | 60 | 1013.0 |
| 20260904061541 | 26 | 39 | 1.6 | 6.4 | 0.00 | 0.00 | 0.00 | 59 | 1013.1 |
| 20260904060041 | 26 | 37 | 0.0 | 9.7 | 0.00 | 0.00 | 0.00 | 58 | 1013.2 |
| 20260904054545 | 26 | 0 | 0.0 | 4.8 | 0.00 | 0.00 | 0.00 | 57 | 1013.0 |
| 20260904053042 | 26 | 0 | 0.0 | 11.3 | 0.00 | 0.00 | 0.00 | 56 | 1013.1 |
| 20260904051542 | 26 | 34 | 1.6 | 4.8 | 0.00 | 0.00 | 0.00 | 55 | 1013.0 |
| 20260904050038 | 26 | 0 | 0.0 | 1.6 | 0.00 | 0.00 | 0.00 | 54 | 1013.0 |
| 20260904044549 | 27 | 0 | 0.0 | 8.0 | 0.00 | 0.00 | 0.00 | 54 | 1012.8 |
| 20260904043037 | 27 | 15 | 0.0 | 4.8 | 0.00 | 0.00 | 0.00 | 54 | 1012.8 |
| 20260904041543 | 27 | 19 | 1.6 | 9.7 | 0.00 | 0.00 | 0.00 | 54 | 1012.8 |
| 20260904040100 | 27 | 0 | 0.0 | 4.8 | 0.00 | 0.00 | 0.00 | 53 | 1013.0 |
| 20260904034543 | 27 | 237 | 1.6 | 11.3 | 0.00 | 0.00 | 0.00 | 53 | 1013.0 |
| 20260904033040 | 27 | 0 | 0.0 | 11.3 | 0.00 | 0.00 | 0.00 | 53 | 1013.0 |
| 20260904031538 | 27 | 0 | 0.0 | 8.0 | 0.00 | 0.00 | 0.00 | 52 | 1013.0 |
| 20260904030043 | 28 | 8 | 0.0 | 9.7 | 0.00 | 0.00 | 0.00 | 52 | 1012.8 |
| 20260904024543 | 28 | 38 | 0.0 | 9.7 | 0.00 | 0.00 | 0.00 | 53 | 1012.7 |
| 20260904023047 | 27 | 23 | 0.0 | 9.7 | 0.00 | 0.00 | 0.00 | 56 | 1012.4 |
| 20260904021540 | 27 | 12 | 3.2 | 11.3 | 0.00 | 0.00 | 0.00 | 59 | 1012.2 |
| 20260904020044 | 28 | 33 | 1.6 | 12.9 | 0.00 | 0.00 | 0.00 | 55 | 1011.9 |
| 20260904014612 | 29 | 185 | 3.2 | 17.7 | 0.00 | 0.00 | 0.00 | 49 | 1011.5 |
| 20260904013042 | 30 | 196 | 0.0 | 11.3 | 0.00 | 0.00 | 0.00 | 45 | 1011.3 |
| 20260904011544 | 30 | 18 | 0.0 | 9.7 | 0.00 | 0.00 | 0.00 | 45 | 1011.1 |
| 20260904010049 | 30 | 12 | 3.2 | 9.7 | 0.00 | 0.00 | 0.00 | 45 | 1010.8 |
| 20260904004545 | 31 | 30 | 0.0 | 12.9 | 0.00 | 0.00 | 0.00 | 45 | 1010.7 |
| 20260904003046 | 31 | 243 | 0.0 | 9.7 | 0.00 | 0.00 | 0.00 | 44 | 1010.7 |
| 20260904001546 | 31 | 18 | 3.2 | 14.5 | 0.00 | 0.00 | 0.00 | 43 | 1010.7 |
| 20260904000041 | 32 | 25 | 1.6 | 12.9 | 0.00 | 0.00 | 0.00 | 43 | 1010.6 |
| 20260903234542 | 32 | 30 | 3.2 | 11.3 | 0.00 | 0.00 | 0.00 | 44 | 1010.5 |
| 20260903233044 | 32 | 358 | 0.0 | 17.7 | 0.00 | 0.00 | 0.00 | 45 | 1010.4 |
| 20260903231545 | 32 | 13 | 3.2 | 14.5 | 0.00 | 0.00 | 0.00 | 44 | 1010.3 |
| 20260903230049 | 32 | 271 | 3.2 | 12.9 | 0.00 | 0.00 | 0.00 | 44 | 1010.2 |
| 20260903224540 | 32 | 56 | 1.6 | 14.5 | 0.00 | 0.00 | 0.00 | 43 | 1010.3 |
| 20260903223053 | 33 | 261 | 3.2 | 9.7 | 0.00 | 0.00 | 0.00 | 43 | 1010.2 |
| 20260903221539 | 33 | 252 | 3.2 | 16.1 | 0.00 | 0.00 | 0.00 | 42 | 1010.2 |
| 20260903220052 | 33 | 28 | 3.2 | 14.5 | 0.00 | 0.00 | 0.00 | 41 | 1010.2 |
| 20260903214540 | 33 | 8 | 1.6 | 9.7 | 0.00 | 0.00 | 0.00 | 42 | 1010.4 |
| 20260903213042 | 33 | 32 | 0.0 | 14.5 | 0.00 | 0.00 | 0.00 | 42 | 1010.4 |
| 20260903211543 | 33 | 36 | 6.4 | 16.1 | 0.00 | 0.00 | 0.00 | 43 | 1010.5 |
| 20260903210049 | 33 | 223 | 1.6 | 11.3 | 0.00 | 0.00 | 0.00 | 44 | 1010.8 |
| 20260903204542 | 33 | 263 | 0.0 | 12.9 | 0.00 | 0.00 | 0.00 | 44 | 1011.0 |
| 20260903203048 | 32 | 51 | 1.6 | 9.7 | 0.00 | 0.00 | 0.00 | 45 | 1011.2 |
| 20260903201542 | 32 | 237 | 3.2 | 11.3 | 0.00 | 0.00 | 0.00 | 46 | 1011.3 |
| 20260903200044 | 32 | 266 | 3.2 | 17.7 | 0.00 | 0.00 | 0.00 | 45 | 1011.5 |
| 20260903194542 | 32 | 56 | 3.2 | 20.9 | 0.00 | 0.00 | 0.00 | 46 | 1011.5 |
| 20260903193041 | 32 | 23 | 1.6 | 11.3 | 0.00 | 0.00 | 0.00 | 47 | 1011.7 |
| 20260903191546 | 32 | 355 | 4.8 | 17.7 | 0.00 | 0.00 | 0.00 | 46 | 1012.0 |
| 20260903190037 | 32 | 353 | 4.8 | 17.7 | 0.00 | 0.00 | 0.00 | 47 | 1012.2 |
| 20260903184543 | 32 | 0 | 3.2 | 11.3 | 0.00 | 0.00 | 0.00 | 49 | 1012.4 |
| 20260903183039 | 32 | 236 | 3.2 | 22.5 | 0.00 | 0.00 | 0.00 | 50 | 1012.5 |
| 20260903181539 | 31 | 56 | 1.6 | 11.3 | 0.00 | 0.00 | 0.00 | 50 | 1012.7 |
| 20260903180049 | 31 | 186 | 6.4 | 16.1 | 0.00 | 0.00 | 0.00 | 51 | 1012.7 |
| 20260903174542 | 31 | 45 | 4.8 | 17.7 | 0.00 | 0.00 | 0.00 | 52 | 1012.8 |
| 20260903173041 | 31 | 4 | 1.6 | 17.7 | 0.00 | 0.00 | 0.00 | 52 | 1013.2 |